Regional Weather Roundup
Issued by NWS Burlington, VT

Home | Current Version | Previous Version | Graphics & Text | Print | Product List | Glossary On
Versions: 1 2 3 4 5 6 7 8 9 10 11 12 13 14 15 16 17 18 19 20 21 22 23 24 25 26 27 28 29 30 31 32 33 34 35 36 37 38 39 40 41 42 43 44 45 46 47 48 49 50
000
ASUS41 KBTV 240530
RWRBTV
VERMONT REGIONAL WEATHER ROUNDUP
NATIONAL WEATHER SERVICE BURLINGTON VT
100 AM EDT THU JUL 24 2014

NOTE: "FAIR" INDICATES FEW OR NO CLOUDS BELOW 12,000 FEET WITH NO
SIGNIFICANT WEATHER AND/OR OBSTRUCTIONS TO VISIBILITY.

* THESE REPORTS ARE NOT UNDER NWS QUALITY CONTROL AND/OR DO NOT
  REPORT WEATHER SUCH AS PRECIPITATION AND FOG.

VTZ001>019-240600-
_____VERMONT_____


CITY           SKY/WX    TMP DP  RH WIND       PRES   REMARKS
BURLINGTON     NOT AVBL
ST. JOHNSBURY*   N/A     64  63  96 MISG      29.81F
SUTTON*          N/A     61 N/A N/A MISG        N/A
GALLUP MILLS*    N/A     48 N/A N/A MISG        N/A
UNION VILLAGE*   N/A     66 N/A N/A MISG        N/A
MT. MANSFIELD*   N/A     52 N/A N/A N12         N/A

_____LAKE CHAMPLAIN_____


CITY           SKY/WX    TMP DP  RH WIND       PRES   REMARKS
BURTON ISLAND*   N/A    N/A N/A N/A NW3         N/A
COLCHESTER RF*   N/A     70  57  64 N16         N/A
DIAMOND ISL*     N/A     70  57  64 W13         N/A

$$

NYZ007-026>031-035-052-083-240600-
_____NORTHERN NEW YORK_____


CITY           SKY/WX    TMP DP  RH WIND       PRES   REMARKS
OGDENSBURG*    MOCLDY    61  52  72 N7        29.93S
POTSDAM*       CLOUDY    61  55  82 N5        29.93R
PARISHVILLE*     N/A     63 N/A N/A N3          N/A

$$
NHZ002-005-011-240600-
_____NEW HAMPSHIRE_____


CITY           SKY/WX    TMP DP  RH WIND       PRES   REMARKS
MT WASHINGTON  LGT RAIN  52  52 100 NW24        N/A  VSB 1/16

$$

_____REGIONAL QUEBEC LOCATIONS_____


CITY           SKY/WX    TMP DP  RH WIND       PRES   REMARKS

_____REGIONAL ONTARIO LOCATIONS_____


CITY           SKY/WX    TMP DP  RH WIND       PRES   REMARKS

______KEY______
VSB  - VISIBILITY IN MILES
WCI  - WIND CHILL INDEX
HX   - HEAT INDEX
$$
NNNN



USA.gov is the U.S. government's official web portal to all federal, state and local government web resources and services.